| time (UTC) | temp C | wind direction | speed KPH | gust KPH | rain 1hr cm | rain 24hr cm | rain mn cm | humidity % | barometer mb |
| 20260510220223 | 20 | 250 | 0.0 | 3.2 | 0.00 | 0.00 | 0.00 | 45 | 1011.2 |
| 20260510215720 | 20 | 169 | 0.0 | 1.6 | 0.00 | 0.00 | 0.00 | 45 | 1011.1 |
| 20260510215218 | 20 | 316 | 4.8 | 6.4 | 0.00 | 0.00 | 0.00 | 43 | 1011.1 |
| 20260510214715 | 20 | 150 | 1.6 | 1.6 | 0.00 | 0.00 | 0.00 | 47 | 1010.8 |
| 20260510214212 | 20 | 297 | 0.0 | 9.7 | 0.00 | 0.00 | 0.00 | 46 | 1010.8 |
| 20260510213709 | 20 | 239 | 1.6 | 1.6 | 0.00 | 0.00 | 0.00 | 47 | 1011.1 |
| 20260510213205 | 20 | 23 | 4.8 | 6.4 | 0.00 | 0.00 | 0.00 | 47 | 1010.9 |
| 20260510212701 | 20 | 186 | 1.6 | 4.8 | 0.00 | 0.00 | 0.00 | 49 | 1011.0 |
| 20260510212159 | 20 | 7 | 4.8 | 6.4 | 0.00 | 0.00 | 0.00 | 49 | 1010.8 |
| 20260510211655 | 20 | 272 | 0.0 | 3.2 | 0.00 | 0.00 | 0.00 | 48 | 1010.9 |
| 20260510211150 | 20 | 322 | 0.0 | 4.8 | 0.00 | 0.00 | 0.00 | 49 | 1010.8 |
| 20260510210647 | 21 | 143 | 0.0 | 3.2 | 0.00 | 0.00 | 0.00 | 49 | 1010.8 |
| 20260510210142 | 21 | 160 | 0.0 | 1.6 | 0.00 | 0.00 | 0.00 | 49 | 1010.7 |
| 20260510205641 | 21 | 59 | 1.6 | 3.2 | 0.00 | 0.00 | 0.00 | 48 | 1010.6 |
| 20260510205137 | 21 | 224 | 3.2 | 4.8 | 0.00 | 0.00 | 0.00 | 50 | 1010.9 |
| 20260510204634 | 21 | 230 | 0.0 | 3.2 | 0.00 | 0.00 | 0.00 | 51 | 1010.8 |
| 20260510204131 | 21 | 344 | 9.7 | 11.3 | 0.00 | 0.00 | 0.00 | 48 | 1010.6 |
| 20260510203627 | 21 | 172 | 6.4 | 9.7 | 0.00 | 0.00 | 0.00 | 49 | 1010.9 |
| 20260510203124 | 21 | 316 | 1.6 | 3.2 | 0.00 | 0.00 | 0.00 | 48 | 1010.7 |
| 20260510202619 | 21 | 341 | 3.2 | 4.8 | 0.00 | 0.00 | 0.00 | 50 | 1010.5 |
| 20260510202115 | 22 | 308 | 0.0 | 1.6 | 0.00 | 0.00 | 0.00 | 48 | 1010.8 |
| 20260510201612 | 22 | 213 | 0.0 | 1.6 | 0.00 | 0.00 | 0.00 | 49 | 1010.7 |
| 20260510201109 | 22 | 312 | 4.8 | 9.7 | 0.00 | 0.00 | 0.00 | 48 | 1010.7 |
| 20260510200605 | 22 | 196 | 1.6 | 3.2 | 0.00 | 0.00 | 0.00 | 47 | 1010.8 |
| 20260510195600 | 22 | 304 | 1.6 | 4.8 | 0.00 | 0.00 | 0.00 | 47 | 1010.5 |
| 20260510195055 | 22 | 336 | 3.2 | 4.8 | 0.00 | 0.00 | 0.00 | 50 | 1010.7 |
| 20260510194550 | 21 | 321 | 1.6 | 3.2 | 0.00 | 0.00 | 0.00 | 52 | 1010.8 |
| 20260510194047 | 21 | 59 | 1.6 | 3.2 | 0.00 | 0.00 | 0.00 | 53 | 1010.9 |
| 20260510193547 | 20 | 124 | 0.0 | 3.2 | 0.00 | 0.00 | 0.00 | 55 | 1010.9 |
| 20260510193043 | 20 | 282 | 0.0 | 3.2 | 0.00 | 0.00 | 0.00 | 56 | 1011.0 |
| 20260510192543 | 20 | 56 | 1.6 | 4.8 | 0.00 | 0.00 | 0.00 | 57 | 1010.8 |
| 20260510192039 | 21 | 316 | 0.0 | 3.2 | 0.00 | 0.00 | 0.00 | 56 | 1010.8 |
| 20260510191536 | 20 | 94 | 0.0 | 3.2 | 0.00 | 0.00 | 0.00 | 58 | 1010.8 |
| 20260510191032 | 21 | 139 | 1.6 | 4.8 | 0.00 | 0.00 | 0.00 | 55 | 1011.1 |
| 20260510190530 | 21 | 308 | 4.8 | 6.4 | 0.00 | 0.00 | 0.00 | 54 | 1011.1 |
| 20260510190027 | 21 | 133 | 4.8 | 6.4 | 0.00 | 0.00 | 0.00 | 53 | 1011.0 |
| 20260510185524 | 21 | 221 | 1.6 | 4.8 | 0.00 | 0.00 | 0.00 | 56 | 1010.9 |
| 20260510185021 | 21 | 243 | 3.2 | 3.2 | 0.00 | 0.00 | 0.00 | 55 | 1011.0 |
| 20260510184519 | 21 | 186 | 3.2 | 4.8 | 0.00 | 0.00 | 0.00 | 56 | 1010.9 |
| 20260510184014 | 21 | 306 | 1.6 | 1.6 | 0.00 | 0.00 | 0.00 | 59 | 1011.1 |
| 20260510183509 | 20 | 317 | 0.0 | 3.2 | 0.00 | 0.00 | 0.00 | 59 | 1011.0 |
| 20260510183005 | 20 | 181 | 1.6 | 9.7 | 0.00 | 0.00 | 0.00 | 60 | 1011.2 |
| 20260510182502 | 20 | 94 | 1.6 | 3.2 | 0.00 | 0.00 | 0.00 | 62 | 1011.3 |
| 20260510181956 | 18 | 59 | 0.0 | 1.6 | 0.00 | 0.00 | 0.00 | 68 | 1011.3 |
| 20260510181455 | 19 | 306 | 1.6 | 3.2 | 0.00 | 0.00 | 0.00 | 63 | 1011.2 |
| 20260510180950 | 20 | 156 | 1.6 | 1.6 | 0.00 | 0.00 | 0.00 | 60 | 1011.1 |
| 20260510180448 | 20 | 293 | 0.0 | 6.4 | 0.00 | 0.00 | 0.00 | 57 | 1011.0 |
| 20260510175945 | 21 | 309 | 3.2 | 6.4 | 0.00 | 0.00 | 0.00 | 54 | 1011.1 |
| 20260510175441 | 21 | 158 | 6.4 | 9.7 | 0.00 | 0.00 | 0.00 | 53 | 1010.9 |
| 20260510174937 | 20 | 316 | 3.2 | 3.2 | 0.00 | 0.00 | 0.00 | 59 | 1010.8 |
| 20260510174435 | 19 | 193 | 0.0 | 1.6 | 0.00 | 0.00 | 0.00 | 62 | 1010.9 |
| 20260510173931 | 19 | 230 | 0.0 | 1.6 | 0.00 | 0.00 | 0.00 | 63 | 1010.9 |
| 20260510173427 | 20 | 134 | 1.6 | 1.6 | 0.00 | 0.00 | 0.00 | 61 | 1011.0 |
| 20260510172924 | 19 | 168 | 1.6 | 1.6 | 0.00 | 0.00 | 0.00 | 64 | 1011.2 |
| 20260510172420 | 19 | 140 | 0.0 | 0.0 | 0.00 | 0.00 | 0.00 | 66 | 1011.2 |
| 20260510171916 | 19 | 124 | 0.0 | 1.6 | 0.00 | 0.00 | 0.00 | 65 | 1011.0 |
| 20260510171413 | 19 | 105 | 1.6 | 1.6 | 0.00 | 0.00 | 0.00 | 65 | 1011.2 |
| 20260510170910 | 19 | 127 | 0.0 | 0.0 | 0.00 | 0.00 | 0.00 | 69 | 1011.4 |
| 20260510170407 | 19 | 142 | 0.0 | 1.6 | 0.00 | 0.00 | 0.00 | 67 | 1011.2 |
| 20260510165901 | 19 | 62 | 0.0 | 1.6 | 0.00 | 0.00 | 0.00 | 65 | 1011.5 |
| 20260510165358 | 19 | 218 | 0.0 | 0.0 | 0.00 | 0.00 | 0.00 | 70 | 1011.4 |
| 20260510164856 | 20 | 72 | 0.0 | 3.2 | 0.00 | 0.00 | 0.00 | 63 | 1011.5 |
| 20260510164353 | 19 | 228 | 0.0 | 1.6 | 0.00 | 0.00 | 0.00 | 63 | 1011.5 |
| 20260510163852 | 19 | 262 | 0.0 | 3.2 | 0.00 | 0.00 | 0.00 | 66 | 1011.4 |
| 20260510163350 | 19 | 173 | 4.8 | 4.8 | 0.00 | 0.00 | 0.00 | 64 | 1011.5 |
| 20260510162849 | 18 | 253 | 0.0 | 0.0 | 0.00 | 0.00 | 0.00 | 71 | 1011.8 |
| 20260510162347 | 18 | 308 | 1.6 | 3.2 | 0.00 | 0.00 | 0.00 | 70 | 1011.6 |
| 20260510161842 | 18 | 89 | 0.0 | 1.6 | 0.00 | 0.00 | 0.00 | 70 | 1011.7 |
| 20260510161339 | 18 | 127 | 1.6 | 4.8 | 0.00 | 0.00 | 0.00 | 68 | 1011.9 |
| 20260510160836 | 19 | 143 | 3.2 | 4.8 | 0.00 | 0.00 | 0.00 | 67 | 1011.8 |
| 20260510160333 | 19 | 126 | 3.2 | 4.8 | 0.00 | 0.00 | 0.00 | 67 | 1011.7 |
| 20260510155832 | 18 | 179 | 1.6 | 3.2 | 0.00 | 0.00 | 0.00 | 67 | 1011.8 |
| 20260510155330 | 17 | 102 | 0.0 | 1.6 | 0.00 | 0.00 | 0.00 | 74 | 1011.8 |
| 20260510154825 | 17 | 96 | 1.6 | 4.8 | 0.00 | 0.00 | 0.00 | 71 | 1012.0 |
| 20260510154321 | 18 | 161 | 0.0 | 0.0 | 0.00 | 0.00 | 0.00 | 71 | 1012.0 |
| 20260510153815 | 17 | 29 | 0.0 | 3.2 | 0.00 | 0.00 | 0.00 | 74 | 1012.1 |
| 20260510153312 | 17 | 167 | 3.2 | 4.8 | 0.00 | 0.00 | 0.00 | 71 | 1011.9 |
| 20260510152809 | 17 | 132 | 0.0 | 3.2 | 0.00 | 0.00 | 0.00 | 73 | 1011.9 |
| 20260510152307 | 17 | 184 | 0.0 | 1.6 | 0.00 | 0.00 | 0.00 | 75 | 1011.9 |
| 20260510151802 | 17 | 104 | 0.0 | 1.6 | 0.00 | 0.00 | 0.00 | 79 | 1011.9 |
| 20260510151300 | 17 | 98 | 0.0 | 4.8 | 0.00 | 0.00 | 0.00 | 78 | 1011.9 |
| 20260510150755 | 16 | 112 | 0.0 | 4.8 | 0.00 | 0.00 | 0.00 | 78 | 1012.0 |
| 20260510150252 | 16 | 68 | 1.6 | 1.6 | 0.00 | 0.00 | 0.00 | 80 | 1012.0 |
| 20260510145748 | 16 | 128 | 3.2 | 3.2 | 0.00 | 0.00 | 0.00 | 79 | 1011.9 |
| 20260510145245 | 16 | 68 | 0.0 | 1.6 | 0.00 | 0.00 | 0.00 | 81 | 1012.0 |
| 20260510144741 | 16 | 124 | 1.6 | 1.6 | 0.00 | 0.00 | 0.00 | 81 | 1012.0 |
| 20260510144238 | 15 | 216 | 1.6 | 3.2 | 0.00 | 0.00 | 0.00 | 81 | 1011.9 |
| 20260510143731 | 15 | 80 | 0.0 | 3.2 | 0.00 | 0.00 | 0.00 | 83 | 1012.2 |
| 20260510143228 | 14 | 182 | 0.0 | 1.6 | 0.00 | 0.00 | 0.00 | 84 | 1012.1 |
| 20260510142719 | 14 | 132 | 1.6 | 3.2 | 0.00 | 0.00 | 0.00 | 85 | 1012.4 |
| 20260510142216 | 15 | 91 | 0.0 | 1.6 | 0.00 | 0.00 | 0.00 | 85 | 1012.3 |
| 20260510141714 | 15 | 99 | 3.2 | 3.2 | 0.00 | 0.00 | 0.00 | 83 | 1012.4 |
| 20260510141212 | 15 | 189 | 0.0 | 1.6 | 0.00 | 0.00 | 0.00 | 86 | 1012.5 |
| 20260510140708 | 14 | 144 | 0.0 | 1.6 | 0.00 | 0.00 | 0.00 | 89 | 1012.3 |
| 20260510140207 | 13 | 211 | 0.0 | 1.6 | 0.00 | 0.00 | 0.00 | 91 | 1012.4 |
| 20260510135702 | 13 | 229 | 0.0 | 4.8 | 0.00 | 0.00 | 0.00 | 90 | 1012.4 |
| 20260510135158 | 13 | 137 | 0.0 | 1.6 | 0.00 | 0.00 | 0.00 | 93 | 1012.6 |
| 20260510134655 | 12 | 235 | 0.0 | 1.6 | 0.00 | 0.00 | 0.00 | 96 | 1012.3 |
| 20260510134153 | 12 | 317 | 1.6 | 1.6 | 0.00 | 0.00 | 0.00 | 97 | 1012.3 |
| 20260510133649 | 11 | 255 | 0.0 | 1.6 | 0.00 | 0.00 | 0.00 | 99 | 1012.2 |
| 20260510133144 | 11 | 160 | 0.0 | 0.0 | 0.00 | 0.00 | 0.00 | 99 | 1012.1 |
| 20260510132641 | 11 | 135 | 0.0 | 0.0 | 0.00 | 0.00 | 0.00 | 99 | 1012.3 |
| 20260510132138 | 11 | 149 | 0.0 | 0.0 | 0.00 | 0.00 | 0.00 | 99 | 1012.4 |
| 20260510131635 | 10 | 199 | 0.0 | 0.0 | 0.00 | 0.00 | 0.00 | 99 | 1012.3 |
| 20260510131133 | 10 | 56 | 0.0 | 0.0 | 0.00 | 0.00 | 0.00 | 99 | 1012.6 |
| 20260510130629 | 10 | 131 | 0.0 | 0.0 | 0.00 | 0.00 | 0.00 | 99 | 1012.5 |
| 20260510130127 | 10 | 99 | 0.0 | 0.0 | 0.00 | 0.00 | 0.00 | 99 | 1012.5 |
| 20260510125623 | 10 | 124 | 0.0 | 0.0 | 0.00 | 0.00 | 0.00 | 99 | 1012.5 |
| 20260510125119 | 10 | 138 | 0.0 | 0.0 | 0.00 | 0.00 | 0.00 | 99 | 1012.6 |
| 20260510124616 | 9 | 84 | 0.0 | 0.0 | 0.00 | 0.00 | 0.00 | 99 | 1012.6 |
| 20260510124113 | 9 | 147 | 0.0 | 0.0 | 0.00 | 0.00 | 0.00 | 99 | 1012.7 |
| 20260510123608 | 9 | 182 | 0.0 | 0.0 | 0.00 | 0.00 | 0.00 | 99 | 1012.6 |
| 20260510123105 | 9 | 268 | 0.0 | 0.0 | 0.00 | 0.00 | 0.00 | 99 | 1012.5 |
| 20260510122601 | 9 | 147 | 0.0 | 0.0 | 0.00 | 0.00 | 0.00 | 99 | 1012.2 |
| 20260510122057 | 9 | 127 | 0.0 | 0.0 | 0.00 | 0.00 | 0.00 | 99 | 1012.3 |
| 20260510121554 | 9 | 126 | 0.0 | 0.0 | 0.00 | 0.00 | 0.00 | 99 | 1012.3 |
| 20260510121051 | 8 | 158 | 0.0 | 0.0 | 0.00 | 0.00 | 0.00 | 99 | 1012.4 |
| 20260510120550 | 8 | 132 | 0.0 | 0.0 | 0.00 | 0.00 | 0.00 | 99 | 1012.5 |
| 20260510120050 | 8 | 136 | 0.0 | 0.0 | 0.00 | 0.00 | 0.00 | 99 | 1012.7 |
| 20260510115547 | 8 | 136 | 0.0 | 0.0 | 0.00 | 0.00 | 0.00 | 99 | 1012.6 |
| 20260510115044 | 8 | 128 | 0.0 | 0.0 | 0.00 | 0.00 | 0.00 | 99 | 1012.6 |
| 20260510114540 | 8 | 78 | 0.0 | 0.0 | 0.00 | 0.00 | 0.00 | 99 | 1012.5 |
| 20260510114036 | 8 | 149 | 0.0 | 0.0 | 0.00 | 0.00 | 0.00 | 99 | 1012.6 |
| 20260510113531 | 8 | 191 | 0.0 | 0.0 | 0.00 | 0.00 | 0.00 | 99 | 1012.8 |
| 20260510113029 | 8 | 191 | 0.0 | 0.0 | 0.00 | 0.00 | 0.00 | 99 | 1012.5 |
| 20260510112526 | 8 | 166 | 0.0 | 0.0 | 0.00 | 0.00 | 0.00 | 99 | 1012.4 |
| 20260510112022 | 8 | 165 | 0.0 | 0.0 | 0.00 | 0.00 | 0.00 | 99 | 1012.2 |
| 20260510111519 | 8 | 240 | 0.0 | 0.0 | 0.00 | 0.00 | 0.00 | 99 | 1012.4 |
| 20260510111015 | 8 | 172 | 0.0 | 0.0 | 0.00 | 0.00 | 0.00 | 99 | 1012.1 |
| 20260510110511 | 8 | 162 | 0.0 | 0.0 | 0.00 | 0.00 | 0.00 | 99 | 1012.0 |
| 20260510110008 | 8 | 243 | 0.0 | 0.0 | 0.00 | 0.00 | 0.00 | 99 | 1012.1 |
| 20260510105502 | 8 | 285 | 0.0 | 1.6 | 0.00 | 0.00 | 0.00 | 99 | 1011.9 |
| 20260510104958 | 7 | 155 | 0.0 | 0.0 | 0.00 | 0.00 | 0.00 | 99 | 1011.7 |
| 20260510104454 | 7 | 163 | 0.0 | 0.0 | 0.00 | 0.00 | 0.00 | 99 | 1011.8 |
| 20260510103951 | 7 | 145 | 0.0 | 0.0 | 0.00 | 0.00 | 0.00 | 99 | 1011.7 |
| 20260510103448 | 7 | 143 | 0.0 | 0.0 | 0.00 | 0.00 | 0.00 | 99 | 1011.4 |
| 20260510102943 | 7 | 172 | 0.0 | 0.0 | 0.00 | 0.00 | 0.00 | 99 | 1011.6 |
| 20260510102440 | 7 | 176 | 0.0 | 0.0 | 0.00 | 0.00 | 0.00 | 99 | 1011.8 |
| 20260510101937 | 7 | 147 | 0.0 | 0.0 | 0.00 | 0.00 | 0.00 | 99 | 1011.4 |
| 20260510101434 | 7 | 232 | 0.0 | 0.0 | 0.00 | 0.00 | 0.00 | 99 | 1011.6 |
| 20260510100932 | 7 | 162 | 0.0 | 0.0 | 0.00 | 0.00 | 0.00 | 99 | 1011.3 |
| 20260510100428 | 7 | 171 | 0.0 | 0.0 | 0.00 | 0.00 | 0.00 | 99 | 1011.2 |
| 20260510095925 | 7 | 227 | 0.0 | 0.0 | 0.00 | 0.00 | 0.00 | 99 | 1011.1 |
| 20260510095420 | 7 | 131 | 0.0 | 0.0 | 0.00 | 0.00 | 0.00 | 99 | 1010.9 |
| 20260510094919 | 7 | 140 | 0.0 | 0.0 | 0.00 | 0.00 | 0.00 | 99 | 1011.1 |
| 20260510094414 | 7 | 158 | 0.0 | 0.0 | 0.00 | 0.00 | 0.00 | 99 | 1011.2 |
| 20260510093911 | 7 | 164 | 0.0 | 0.0 | 0.00 | 0.00 | 0.00 | 99 | 1011.3 |
| 20260510093406 | 7 | 260 | 0.0 | 0.0 | 0.00 | 0.00 | 0.00 | 99 | 1011.4 |
| 20260510092903 | 7 | 124 | 0.0 | 0.0 | 0.00 | 0.00 | 0.00 | 99 | 1010.9 |
| 20260510092400 | 7 | 159 | 0.0 | 0.0 | 0.00 | 0.00 | 0.00 | 99 | 1011.1 |
| 20260510091855 | 7 | 134 | 0.0 | 0.0 | 0.00 | 0.00 | 0.00 | 99 | 1011.2 |
| 20260510091352 | 7 | 154 | 0.0 | 0.0 | 0.00 | 0.00 | 0.00 | 99 | 1011.2 |
| 20260510090849 | 7 | 161 | 0.0 | 0.0 | 0.00 | 0.00 | 0.00 | 99 | 1011.5 |
| 20260510090340 | 7 | 137 | 0.0 | 0.0 | 0.00 | 0.00 | 0.00 | 99 | 1011.4 |
| 20260510085836 | 7 | 133 | 0.0 | 0.0 | 0.00 | 0.00 | 0.00 | 99 | 1011.3 |
| 20260510085336 | 7 | 164 | 0.0 | 0.0 | 0.00 | 0.00 | 0.00 | 99 | 1011.5 |
| 20260510084832 | 7 | 157 | 0.0 | 0.0 | 0.00 | 0.00 | 0.00 | 99 | 1011.5 |
| 20260510084329 | 7 | 156 | 0.0 | 0.0 | 0.00 | 0.00 | 0.00 | 99 | 1011.2 |
| 20260510083826 | 7 | 159 | 0.0 | 0.0 | 0.00 | 0.00 | 0.00 | 99 | 1011.3 |
| 20260510083323 | 7 | 159 | 0.0 | 0.0 | 0.00 | 0.00 | 0.00 | 99 | 1011.3 |
| 20260510082818 | 7 | 148 | 0.0 | 0.0 | 0.00 | 0.00 | 0.00 | 99 | 1011.3 |
| 20260510082316 | 7 | 145 | 0.0 | 0.0 | 0.00 | 0.00 | 0.00 | 99 | 1011.3 |
| 20260510081814 | 7 | 154 | 0.0 | 0.0 | 0.00 | 0.00 | 0.00 | 99 | 1011.5 |
| 20260510081310 | 7 | 182 | 0.0 | 0.0 | 0.00 | 0.00 | 0.00 | 99 | 1011.3 |
| 20260510080806 | 7 | 192 | 0.0 | 0.0 | 0.00 | 0.00 | 0.00 | 99 | 1011.5 |
| 20260510080301 | 7 | 173 | 0.0 | 0.0 | 0.00 | 0.00 | 0.00 | 99 | 1011.4 |
| 20260510075759 | 7 | 156 | 0.0 | 0.0 | 0.00 | 0.00 | 0.00 | 99 | 1011.3 |
| 20260510075256 | 7 | 154 | 0.0 | 0.0 | 0.00 | 0.00 | 0.00 | 99 | 1011.3 |
| 20260510074753 | 7 | 154 | 0.0 | 0.0 | 0.00 | 0.00 | 0.00 | 99 | 1011.2 |
| 20260510074249 | 7 | 163 | 0.0 | 0.0 | 0.00 | 0.00 | 0.00 | 99 | 1011.3 |
| 20260510073745 | 7 | 172 | 0.0 | 0.0 | 0.00 | 0.00 | 0.00 | 99 | 1011.4 |
| 20260510073242 | 7 | 173 | 0.0 | 0.0 | 0.00 | 0.00 | 0.00 | 99 | 1011.2 |
| 20260510072737 | 7 | 153 | 0.0 | 0.0 | 0.00 | 0.00 | 0.00 | 99 | 1011.2 |
| 20260510072234 | 7 | 144 | 0.0 | 0.0 | 0.00 | 0.00 | 0.00 | 99 | 1011.2 |
| 20260510071731 | 7 | 259 | 0.0 | 0.0 | 0.00 | 0.00 | 0.00 | 99 | 1011.3 |
| 20260510071227 | 7 | 302 | 0.0 | 0.0 | 0.00 | 0.00 | 0.00 | 99 | 1011.3 |
| 20260510070726 | 7 | 91 | 0.0 | 0.0 | 0.00 | 0.00 | 0.00 | 99 | 1011.3 |
| 20260510070223 | 7 | 195 | 0.0 | 0.0 | 0.00 | 0.00 | 0.00 | 99 | 1011.6 |
| 20260510065717 | 7 | 231 | 0.0 | 0.0 | 0.00 | 0.00 | 0.00 | 99 | 1011.6 |
| 20260510065214 | 7 | 177 | 0.0 | 0.0 | 0.00 | 0.00 | 0.00 | 99 | 1011.8 |
| 20260510064711 | 7 | 186 | 0.0 | 0.0 | 0.00 | 0.00 | 0.00 | 99 | 1011.7 |
| 20260510064209 | 7 | 204 | 0.0 | 0.0 | 0.00 | 0.00 | 0.00 | 99 | 1011.6 |
| 20260510063705 | 7 | 126 | 0.0 | 0.0 | 0.00 | 0.00 | 0.00 | 99 | 1011.5 |
| 20260510063201 | 7 | 116 | 0.0 | 0.0 | 0.00 | 0.00 | 0.00 | 99 | 1011.4 |
| 20260510062658 | 7 | 148 | 0.0 | 0.0 | 0.00 | 0.00 | 0.00 | 99 | 1011.4 |
| 20260510062154 | 7 | 129 | 0.0 | 0.0 | 0.00 | 0.00 | 0.00 | 99 | 1011.5 |
| 20260510061649 | 7 | 165 | 0.0 | 0.0 | 0.00 | 0.00 | 0.00 | 99 | 1011.4 |
| 20260510061147 | 7 | 158 | 0.0 | 0.0 | 0.00 | 0.00 | 0.00 | 99 | 1011.6 |
| 20260510060643 | 7 | 174 | 0.0 | 0.0 | 0.00 | 0.00 | 0.00 | 99 | 1011.5 |
| 20260510060139 | 7 | 154 | 0.0 | 0.0 | 0.00 | 0.00 | 0.00 | 99 | 1011.6 |
| 20260510055636 | 7 | 178 | 0.0 | 0.0 | 0.00 | 0.00 | 0.00 | 99 | 1011.6 |
| 20260510055134 | 7 | 216 | 0.0 | 0.0 | 0.00 | 0.00 | 0.00 | 99 | 1011.6 |
| 20260510054629 | 7 | 124 | 0.0 | 0.0 | 0.00 | 0.00 | 0.00 | 99 | 1011.4 |
| 20260510054125 | 7 | 127 | 0.0 | 0.0 | 0.00 | 0.00 | 0.00 | 99 | 1011.6 |
| 20260510053624 | 7 | 231 | 0.0 | 0.0 | 0.00 | 0.00 | 0.00 | 99 | 1011.7 |
| 20260510053121 | 7 | 149 | 0.0 | 0.0 | 0.00 | 0.00 | 0.00 | 99 | 1011.7 |
| 20260510052617 | 7 | 124 | 0.0 | 0.0 | 0.00 | 0.00 | 0.00 | 99 | 1011.6 |
| 20260510052114 | 7 | 129 | 0.0 | 0.0 | 0.00 | 0.00 | 0.00 | 99 | 1011.8 |
| 20260510051609 | 7 | 129 | 0.0 | 0.0 | 0.00 | 0.00 | 0.00 | 99 | 1012.0 |
| 20260510051106 | 7 | 127 | 0.0 | 0.0 | 0.00 | 0.00 | 0.00 | 99 | 1011.6 |
| 20260510050604 | 7 | 136 | 0.0 | 0.0 | 0.00 | 0.00 | 0.00 | 99 | 1012.1 |
| 20260510050100 | 7 | 184 | 0.0 | 0.0 | 0.00 | 0.00 | 0.00 | 99 | 1012.1 |
| 20260510045558 | 7 | 170 | 0.0 | 0.0 | 0.00 | 0.00 | 0.00 | 99 | 1012.0 |
| 20260510045053 | 7 | 228 | 0.0 | 0.0 | 0.00 | 0.00 | 0.00 | 99 | 1012.1 |
| 20260510044550 | 7 | 215 | 0.0 | 0.0 | 0.00 | 0.00 | 0.00 | 99 | 1012.0 |
| 20260510044048 | 7 | 161 | 0.0 | 0.0 | 0.00 | 0.00 | 0.00 | 99 | 1011.9 |
| 20260510043543 | 7 | 161 | 0.0 | 0.0 | 0.00 | 0.00 | 0.00 | 99 | 1012.0 |
| 20260510043039 | 7 | 163 | 0.0 | 0.0 | 0.00 | 0.00 | 0.00 | 99 | 1011.9 |
| 20260510042538 | 7 | 163 | 0.0 | 0.0 | 0.00 | 0.00 | 0.00 | 99 | 1012.0 |
| 20260510042034 | 7 | 205 | 0.0 | 0.0 | 0.00 | 0.00 | 0.00 | 99 | 1012.1 |
| 20260510041531 | 7 | 205 | 0.0 | 0.0 | 0.00 | 0.00 | 0.00 | 99 | 1012.1 |
| 20260510041029 | 7 | 205 | 0.0 | 0.0 | 0.00 | 0.00 | 0.00 | 99 | 1012.2 |
| 20260510040525 | 7 | 145 | 0.0 | 0.0 | 0.00 | 0.00 | 0.00 | 99 | 1012.0 |
| 20260510040021 | 7 | 165 | 0.0 | 0.0 | 0.00 | 1.30 | 1.30 | 99 | 1012.0 |
| 20260510035518 | 7 | 164 | 0.0 | 0.0 | 0.00 | 1.30 | 1.30 | 99 | 1012.0 |
| 20260510035016 | 7 | 182 | 0.0 | 0.0 | 0.00 | 1.30 | 1.30 | 99 | 1012.1 |
| 20260510034516 | 7 | 204 | 0.0 | 0.0 | 0.00 | 1.30 | 1.30 | 99 | 1012.0 |
| 20260510034012 | 7 | 134 | 0.0 | 0.0 | 0.00 | 1.30 | 1.30 | 99 | 1011.9 |
| 20260510033508 | 7 | 134 | 0.0 | 0.0 | 0.00 | 1.30 | 1.30 | 99 | 1012.1 |
| 20260510033006 | 7 | 209 | 0.0 | 0.0 | 0.00 | 1.30 | 1.30 | 99 | 1012.3 |
| 20260510032502 | 7 | 226 | 0.0 | 0.0 | 0.00 | 1.30 | 1.30 | 99 | 1012.5 |
| 20260510031956 | 7 | 132 | 0.0 | 0.0 | 0.00 | 1.30 | 1.30 | 99 | 1012.4 |
| 20260510031452 | 7 | 132 | 0.0 | 0.0 | 0.00 | 1.30 | 1.30 | 99 | 1012.2 |
| 20260510030948 | 7 | 132 | 0.0 | 0.0 | 0.00 | 1.30 | 1.30 | 99 | 1012.5 |
| 20260510030443 | 7 | 133 | 0.0 | 0.0 | 0.00 | 1.30 | 1.30 | 99 | 1012.7 |
| 20260510025941 | 7 | 186 | 0.0 | 0.0 | 0.00 | 1.30 | 1.30 | 99 | 1012.8 |
| 20260510025438 | 7 | 170 | 0.0 | 0.0 | 0.00 | 1.30 | 1.30 | 99 | 1012.6 |
| 20260510024936 | 7 | 169 | 0.0 | 0.0 | 0.00 | 1.30 | 1.30 | 99 | 1012.7 |
| 20260510024432 | 7 | 170 | 0.0 | 0.0 | 0.00 | 1.30 | 1.30 | 99 | 1012.6 |
| 20260510023928 | 7 | 133 | 0.0 | 0.0 | 0.00 | 1.30 | 1.30 | 99 | 1012.6 |
| 20260510023425 | 7 | 133 | 0.0 | 0.0 | 0.00 | 1.30 | 1.30 | 99 | 1012.6 |
| 20260510022922 | 7 | 174 | 0.0 | 0.0 | 0.00 | 1.30 | 1.30 | 99 | 1012.7 |
| 20260510022421 | 7 | 175 | 0.0 | 0.0 | 0.00 | 1.30 | 1.30 | 99 | 1012.8 |
| 20260510021920 | 7 | 181 | 0.0 | 0.0 | 0.00 | 1.30 | 1.30 | 99 | 1012.7 |
| 20260510021418 | 7 | 154 | 0.0 | 0.0 | 0.00 | 1.30 | 1.30 | 99 | 1012.6 |
| 20260510020915 | 7 | 181 | 0.0 | 0.0 | 0.00 | 1.30 | 1.30 | 99 | 1012.6 |
| 20260510020409 | 7 | 264 | 0.0 | 0.0 | 0.00 | 1.30 | 1.30 | 99 | 1012.8 |
| 20260510015905 | 7 | 269 | 0.0 | 0.0 | 0.18 | 1.30 | 1.30 | 99 | 1012.7 |
| 20260510015401 | 7 | 272 | 0.0 | 0.0 | 0.18 | 1.30 | 1.30 | 99 | 1012.8 |
| 20260510014857 | 7 | 277 | 0.0 | 0.0 | 0.00 | 1.27 | 1.27 | 99 | 1013.0 |
| 20260510014354 | 7 | 163 | 0.0 | 0.0 | 0.00 | 1.27 | 1.27 | 99 | 1012.8 |
| 20260510013851 | 7 | 160 | 0.0 | 0.0 | 0.00 | 1.27 | 1.27 | 99 | 1012.9 |
| 20260510013346 | 7 | 259 | 0.0 | 0.0 | 0.00 | 1.27 | 1.27 | 99 | 1013.1 |
| 20260510012842 | 7 | 259 | 0.0 | 0.0 | 0.00 | 1.27 | 1.27 | 99 | 1013.1 |
| 20260510012341 | 7 | 259 | 0.0 | 0.0 | 0.00 | 1.27 | 1.27 | 99 | 1013.0 |
| 20260510011836 | 7 | 259 | 0.0 | 0.0 | 0.00 | 1.27 | 1.27 | 99 | 1013.0 |
| 20260510011331 | 7 | 259 | 0.0 | 0.0 | 0.00 | 1.27 | 1.27 | 99 | 1013.0 |
| 20260510010828 | 7 | 259 | 0.0 | 0.0 | 0.00 | 1.27 | 1.27 | 99 | 1013.1 |
| 20260510010326 | 7 | 259 | 0.0 | 0.0 | 0.00 | 1.27 | 1.27 | 99 | 1012.9 |
| 20260510005822 | 7 | 258 | 0.0 | 0.0 | 0.00 | 1.27 | 1.27 | 99 | 1012.9 |
| 20260510005319 | 7 | 216 | 0.0 | 0.0 | 0.00 | 1.27 | 1.27 | 99 | 1012.7 |
| 20260510004816 | 7 | 227 | 0.0 | 0.0 | 0.00 | 1.27 | 1.27 | 99 | 1012.7 |
| 20260510004314 | 7 | 229 | 0.0 | 0.0 | 0.00 | 1.27 | 1.27 | 99 | 1012.7 |
| 20260510003811 | 7 | 199 | 0.0 | 0.0 | 0.00 | 1.27 | 1.27 | 99 | 1012.6 |
| 20260510003308 | 7 | 230 | 0.0 | 0.0 | 0.00 | 1.27 | 1.27 | 99 | 1012.7 |
| 20260510002806 | 7 | 231 | 0.0 | 0.0 | 0.00 | 1.27 | 1.27 | 99 | 1012.6 |
| 20260510002306 | 7 | 172 | 0.0 | 0.0 | 0.00 | 1.27 | 1.27 | 99 | 1012.5 |
| 20260510001800 | 7 | 175 | 0.0 | 0.0 | 0.00 | 1.27 | 1.27 | 99 | 1012.7 |
| 20260510001259 | 7 | 316 | 0.0 | 0.0 | 0.00 | 1.27 | 1.27 | 99 | 1012.4 |
| 20260510000754 | 7 | 316 | 0.0 | 0.0 | 0.00 | 1.27 | 1.27 | 99 | 1012.6 |
| 20260510000252 | 7 | 316 | 0.0 | 0.0 | 0.00 | 1.27 | 1.27 | 99 | 1012.5 |
| 20260509235749 | 7 | 316 | 0.0 | 0.0 | 0.00 | 1.27 | 1.27 | 99 | 1012.3 |
| 20260509235245 | 7 | 102 | 0.0 | 0.0 | 0.00 | 1.27 | 1.27 | 99 | 1012.6 |
| 20260509234741 | 7 | 92 | 0.0 | 0.0 | 0.00 | 1.27 | 1.27 | 99 | 1012.5 |
| 20260509234238 | 7 | 307 | 0.0 | 0.0 | 0.00 | 1.27 | 1.27 | 99 | 1012.3 |
| 20260509233737 | 7 | 285 | 0.0 | 0.0 | 0.00 | 1.27 | 1.27 | 99 | 1012.4 |
| 20260509233234 | 7 | 150 | 0.0 | 0.0 | 0.00 | 1.27 | 1.27 | 99 | 1012.3 |
| 20260509232729 | 7 | 156 | 0.0 | 0.0 | 0.00 | 1.27 | 1.27 | 99 | 1012.2 |
| 20260509232227 | 7 | 147 | 0.0 | 0.0 | 0.00 | 1.27 | 1.27 | 99 | 1012.1 |
| 20260509231723 | 7 | 247 | 0.0 | 0.0 | 0.00 | 1.27 | 1.27 | 99 | 1012.4 |
| 20260509231220 | 7 | 101 | 0.0 | 0.0 | 0.00 | 1.27 | 1.27 | 99 | 1012.0 |
| 20260509230718 | 7 | 175 | 0.0 | 0.0 | 0.00 | 1.27 | 1.27 | 99 | 1012.3 |
| 20260509230214 | 7 | 241 | 0.0 | 0.0 | 0.00 | 1.27 | 1.27 | 99 | 1012.2 |
| 20260509225710 | 7 | 130 | 0.0 | 0.0 | 0.00 | 1.27 | 1.27 | 99 | 1012.2 |
| 20260509225207 | 7 | 232 | 0.0 | 0.0 | 0.00 | 1.27 | 1.27 | 99 | 1012.2 |
| 20260509224703 | 7 | 263 | 0.0 | 0.0 | 0.00 | 1.27 | 1.27 | 99 | 1012.2 |
| 20260509224200 | 7 | 287 | 0.0 | 0.0 | 0.00 | 1.27 | 1.27 | 99 | 1012.3 |
| 20260509223656 | 7 | 233 | 0.0 | 0.0 | 0.00 | 1.27 | 1.27 | 99 | 1012.1 |
| 20260509223153 | 7 | 233 | 0.0 | 0.0 | 0.00 | 1.27 | 1.27 | 99 | 1012.3 |
| 20260509222650 | 7 | 73 | 0.0 | 0.0 | 0.00 | 1.27 | 1.27 | 99 | 1012.1 |
| 20260509222145 | 7 | 192 | 0.0 | 0.0 | 0.00 | 1.27 | 1.27 | 99 | 1012.3 |
| 20260509221641 | 7 | 99 | 0.0 | 0.0 | 0.00 | 1.27 | 1.27 | 99 | 1012.3 |
| 20260509221137 | 7 | 102 | 0.0 | 0.0 | 0.00 | 1.27 | 1.27 | 99 | 1012.1 |